Regional Weather Roundup
Issued by NWS Wakefield, VA

Home | Current Version | Previous Version | Text Only | Print | Product List | Glossary On
Versions: 1 2 3 4 5 6 7 8 9 10 11 12 13 14 15 16 17 18 19 20 21 22 23 24 25 26 27
000
ASUS41 KAKQ 291215
RWRAKQ

REGIONAL WEATHER ROUNDUP
NATIONAL WEATHER SERVICE WAKEFIELD VA
800 AM EDT SAT JUL 29 2017

Note: "fair" indicates few or no clouds below 12,000 feet with no
significant weather and/or obstructions to visibility. * = Denotes
station may not report precipitation (e.g., rain,snow,etc.),
thunder or fog.

VAZ042-051-052>054-056-291300-
NORTHERN VIRGINIA

CITY           SKY/WX    TMP DP  RH WIND       PRES   REMARKS
WASH NATIONAL  CLOUDY    72  68  87 N16       29.71R
DULLES         PTSUNNY   69  64  84 N14G22    29.74R
FORT BELVOIR   CLOUDY    71  66  85 N7        29.70R
QUANTICO       CLOUDY    72  69  90 N12G21    29.70R
FREDERICKSBRG* CLOUDY    69  69 100 N10       29.68R
STAFFORD*      CLOUDY    69  69 100 N10       29.74R
WARRENTON      CLOUDY    71  64  80 N9        29.72R
CULPEPER*      CLOUDY    71  67  88 N8        29.74R
MANASSAS*      LGT RAIN  69  66  90 N14       29.73R
LEESBURG*      CLOUDY    68  68 100 N15G21    29.76R
WINCHESTER     CLOUDY    63  61  94 N3        29.80R
FRONT ROYAL*   CLOUDY    64  63  94 N9        29.78R
LURAY*         CLOUDY    66  64  94 N7        29.78R
$$

VAZ048-049-060>072-079>083-291300-
CENTRAL AND SOUTH CENTRAL VIRGINIA

CITY           SKY/WX    TMP DP  RH WIND       PRES   REMARKS
RICHMOND       DRIZZLE   70  69  97 N13       29.64R FOG
CHESTERFIELD*  LGT RAIN  70  70 100 N8        29.65R FOG
PETERSBURG*    CLOUDY    70  69  98 N10G16    29.64R
HANOVER        CLOUDY    69  66  90 VRB5      29.67R FOG
TAPPAHANNOCK*  CLOUDY    71  71 100 N7        29.64S
QUINTON*       CLOUDY    70  70 100 N8        29.62S FOG
CHARLOTTSVILLE CLOUDY    72  63  73 N10G21    29.74R
GORDONSVILLE*  CLOUDY    69  66  88 N8G17     29.72R
ORANGE*        CLOUDY    68  64  88 CALM      29.72R
LOUISA*        CLOUDY    66  64  94 N9G16     29.71R
BUMPASS*       CLOUDY    68  68 100 N3        29.69R
FARMVILLE*     CLOUDY    70  67  91 N6        29.69R
CREWE*         CLOUDY    69  65  86 N7        29.67R
FORT PICKETT*  CLOUDY   N/A N/A N/A N9        29.67R
CHASE CITY*    CLOUDY    69  69  99 N5        29.69R
CLARKSVILLE*   CLOUDY    70  70 100 N7        29.68R
SOUTH HILL*    CLOUDY    70  70 100 N12G17    29.71R
LAWRENCEVILLE* CLOUDY    72  71  97 NW6       29.65R
EMPORIA*       CLOUDY    72  70  94 W7        29.64R
$$

VAZ088>098-291300-
SOUTHEAST VIRGINIA

CITY           SKY/WX    TMP DP  RH WIND       PRES   REMARKS
NORFOLK        CLOUDY    76  74  93 SW7       29.59S
VIRGINIA BEACH CLOUDY    74  72  93 SW9       29.59R
NORFOLK NAVAL  LGT RAIN  76  73  91 W8        29.60S FOG
WEST POINT*    CLOUDY    72  71  97 N5        29.62S
SALUDA*        PTSUNNY   73  73 100 CALM      29.60S
NEWPORT NEWS   CLOUDY    74  72  93 SW5       29.59S
LANGLEY AFB    CLOUDY    74  74  99 W6        29.59S
FORT EUSTIS    CLOUDY    74  72  93 SW5       29.57S
WILLIAMSBURG*  CLOUDY    75  75 100 CALM      29.61R
HR EXEC AP*    CLOUDY    75  72  88 W3        29.58S
FRANKLIN*      CLOUDY    73  72  94 W3        29.61S
US460-WAKEFLD  CLOUDY    73  73 100 VRB3      29.60S
$$

VAZ020-022-025-037-045-291300-
WEST CENTRAL AND SOUTHWEST VIRGINIA

CITY           SKY/WX    TMP DP  RH WIND       PRES   REMARKS
STAUNTON*      LGT RAIN  65  64  96 N8        29.81R
WAYNESBORO*    CLOUDY    64  64 100 N12G17    29.79R
HOT SPRINGS VA DRZL/FOG  55  54  94 N3        29.89R VSB 1
LYNCHBURG      PTSUNNY   68  65  90 N6        29.75R
DANVILLE       SUNNY     72  67  84 N7        29.72R
SOUTH BOSTON*  CLOUDY    70  69  95 N12       29.70R
MARTINSVILLE   SUNNY     70  64  80 N9        29.77R
ROANOKE        PTSUNNY   70  65  84 NW3       29.79R
BLACKSBURG     CLOUDY    67  63  86 W3        29.85R
DUBLIN*        MOSUNNY   69  57  66 NW7       29.85R
MARION*        PTSUNNY   68  61  78 W6        29.89S
HILLSVILLE*    SUNNY     67  58  73 CALM      29.84R
RICHLANDS*     CLOUDY    63  59  88 NW6       29.91R
WISE*          CLOUDY    64  64 100 NW6       29.93R
ABINGDON*      CLOUDY    70  64  82 CALM      29.88R
$$

MDZ021>025-VAZ099-100-291300-
SOUTHERN MARYLAND AND THE DELMARVA PENINSULA

CITY           SKY/WX    TMP DP  RH WIND       PRES   REMARKS
PATUXENT RIVER CLOUDY    71  69  93 NE20G26   29.64R
BAY BRIDGE APT CLOUDY    72  68  88 N13       29.69R
LEONARDTOWN    CLOUDY    70  66  88 NE7       29.67R
DOVER          PTSUNNY   72  72 100 N18G25    29.66R
GEORGETOWN     CLOUDY    71  68  90 NE16G23   29.65R
EASTON         PTSUNNY   72  66  83 NE10G16   29.70R
CAMBRIDGE      CLOUDY    70  68  94 NE7       29.64R
SALISBURY      LGT RAIN  70  70 100 NE10      29.62R
OCEAN CITY     LGT RAIN  71  71 100 NE14      29.62R
WALLOPS ISLAND LGT RAIN  73  73 100 CALM      29.60S FOG
ACCOMACK*      LGT RAIN  73  73  97 CALM      29.59F
$$

NCZ012>017-030>032-291300-
NORTH CENTRAL AND EASTERN NORTH CAROLINA

CITY           SKY/WX    TMP DP  RH WIND       PRES   REMARKS
ROANOKE RAPIDS CLOUDY    73  73 100 W3        29.63R
RALEIGH        PTSUNNY   76  72  87 N8        29.69R
ELIZABETH CITY CLOUDY    77  77 100 SW8       29.61S
AHOSKIE*       LGT RAIN  73  73  98 CALM      29.62S
EDENTON*       CLOUDY    79  76  90 CALM      29.63R
CURRITUCK*     CLOUDY    76  71  85 SW3       29.61F
KILL DEVIL HLS CLOUDY    74  74 100 CALM      29.60F
MANTEO         RAIN      74  72  91 SW17      29.63S
CAPE HATTERAS  LGT RAIN  79  77  94 W12G20    29.65R
TARBORO*       NOT AVBL
GOLDSBORO      CLOUDY    79  79 100 W12       29.65
WASHINGTON     CLOUDY    76  74  93 SW9       29.64R
GREENVILLE     CLOUDY    77  77 100 SW8       29.67S FOG
NEW BERN       CLOUDY    78  76  93 SW8       29.66F
WILMINGTON     HVY RAIN  77  75  93 SW15G22   29.69R FOG
$$

VAZ048-291300-
ELSEWHERE

CITY           SKY/WX    TMP DP  RH WIND       PRES   REMARKS
HARRISBURG PA  CLOUDY    69  61  75 N7        29.78R
BALTIMORE      PTSUNNY   69  65  86 NE12G20   29.71R
ANNAPOLIS      CLOUDY    74  71  91 N17       29.69R
ANDREWS AFB    PTSUNNY   68  68 100 N15G25    29.70R
PHILADELPHIA   CLOUDY    68  58  70 NE18G25   29.74R
HENDERSON NC   CLOUDY    68  66  92 NW7       29.69R
GREENSBORO     CLOUDY    74  70  87 NE7       29.74R
ROCKY MOUNT    CLOUDY    77  75  93 W8        29.65R
$$

VAZ100-291300-
MARINE

STATION/POSITION TIME  TEMP    WIND        PRES    WAVE   SWELL
                       AIR SEA DIR/SP/G            HT/PER HT/PER
                 (UTC) (F)     (DEG/KT/KT) (MB)    (FT/S) (FT/S)
BRANDYWINE LGT   1148           60/ 30/ 35   N/A
CAPE MAY NJ      1148   71 75   70/ 15/ 23 1003.5R
LEWES DE         1148   73 74   70/ 19/ 31 1003.0F
15NM E FENWICK I 1150   74 74   10/ 16/ 19 1002.2R   3/ 5   2/ 8
OCEAN-CITY-INLET 1148   72 74   40/  9/ 16 1002.9S
WACHAPREAGUE VA  1148   73 80   20/  1/  2 1002.0F
THOMAS POINT MD  1200   72 80   20/ 26/ 28   N/A
GOOSES REEF MD   1150   74      30/ 19/ 25 1004.7R
COVE POINT MD    1148   72      50/ 19/ 27 1004.4R
SOLOMONS ISLAND  1148   72 82   10/ 10/ 14   N/A
BISHOPS HEAD MD  1148   71 78   40/ 12/ 19 1003.1R
PINEY POINT MD   1148           50/ 10/ 13   N/A
POTOMAC MD       1150   73      50/ 17/ 23 1001.9R
CAMBRIDGE MD     1148   72 81              1004.5R
LEWISETTA VA     1148   72 81   50/ 12/ 20 1002.9R
RAPPAHANNOCK LGT 1148          290/  5/  6 1002.8S
STINGRAY PT      1150   74      10/  6/  8 1002.2R
YORK RVR RNG VA  1148   75     330/  5/  6 1002.5R
YORKTOWN VA      1148   74 81  290/  3/  5 1001.8R
JAMESTOWN VA     1150           10/  6/  8   N/A
DOMINION TERM VA 1148   75     270/ 10/ 13 1001.9R
KIPTOPEKE VA     1148      77  240/  6/  8   N/A
CHES BAY BRIDGE  1148   75 76  250/ 13/ 15 1001.8R
CAPE HENRY VA    1148   75     230/  8/ 12   N/A
WILLOUBY STN VA  1148   75     260/ 14/ 16 1001.8R
S CRANEY ISL VA  1148   75     250/  6/  8 1001.9R
CAPE HENRY BUOY  1130      73                N/A     2/ 8
1ST LANDING BUOY 1150   76                 1002.0R
64NM E OF VA BCH 1150   78 76  230/ 17/ 21 1002.6R   3/ 5   2/13
DUCK PIER NC     1148   77 60  230/ 12/ 14 1002.0F
44100 DUCK FRF   1105      71                N/A     2/ 8
44056 DUCK FRF   1200      66                N/A     2/ 8
OREGON INLET NC  1148          230/ 17/ 20   N/A
HATTERAS NC      1148   78 80  230/  8/ 13 1003.8S
DIAMOND SHLS NC  1150   78 83  270/ 19/ 23 1003.8R   5/ 5   2/ 8
CAPE LOOKOUT NC  1100   74     240/ 26/ 34 1004.9R
$$




USA.gov is the U.S. government's official web portal to all federal, state and local government web resources and services.